Temperature
18 18 18 18 18 19 19 19 19 18 18 18 18 18 18 18 18 18 18 18 18 18 18 18 18 18 18 18 18 18 18 17 17 17 17 17 17 17 17 17 16 16 16
18 18 18 18 19 19 19 19 19 19 18 18 18 18 18 18 18 18 18 18 18 18 18 18 18 18 18 18 18 17 17 17 17 17 17 17 17 17 17 17 16 16 16
18 18 18 18 18 19 19 19 19 18 18 18 18 18 18 18 18 18 18 18 18 18 18 18 18 18 18 18 18 17 17 17 17 17 17 17 17 17 17 16 16 16 16
19 18 19 19 19 19 19 19 18 18 18 18 18 18 18 18 18 18 18 18 18 18 18 18 18 18 18 18 17 17 17 17 17 17 17 17 17 17 17 17 16 16 16
19 19 19 19 19 19 18 18 18 18 18 18 18 18 18 18 18 18 18 18 18 18 18 18 18 18 18 17 17 17 17 17 17 17 17 17 17 17 16 16 16 16 16
19 19 19 19 19 19 18 18 18 18 18 18 18 18 18 18 18 18 18 18 18 18 18 18 18 17 17 17 17 17 17 17 17 17 17 17 17 17 17 16 16 16 16
19 19 19 19 19 19 18 18 18 18 18 18 18 18 18 18 18 18 18 18 18 18 18 18 17 17 17 17 17 17 17 17 17 17 17 17 17 17 17 17 17 16 16
19 19 19 19 18 19 19 18 18 18 18 18 18 18 18 18 18 18 18 18 18 18 17 17 17 17 17 17 17 17 17 17 17 17 17 17 17 17 17 17 17 17 16
19 19 19 19 18 19 19 18 18 18 18 18 18 18 18 18 18 18 18 18 18 17 17 17 17 17 17 17 17 17 17 17 17 17 17 17 17 17 17 17 17 17 17
19 19 19 19 19 19 18 18 18 18 18 18 18 18 18 18 18 18 18 18 18 17 17 17 17 17 17 17 17 17 17 17 17 17 17 17 17 17 17 17 17 17 17
19 19 19 19 19 19 18 18 18 18 18 18 18 18 18 18 18 18 18 18 18 17 17 17 17 17 17 17 17 17 17 17 17 17 17 17 17 17 17 17 17 17 17
19 19 19 19 19 19 19 19 18 18 18 18 18 18 18 18 18 18 18 18 18 17 17 17 17 17 17 17 17 17 17 17 17 17 17 17 17 17 17 17 17 17 17
20 19 19 19 19 19 19 19 19 18 18 18 18 18 18 18 18 18 18 18 18 18 17 17 17 17 17 17 17 17 17 17 17 17 17 17 17 17 17 17 17 17 17
20 20 19 19 19 19 19 19 18 18 18 18 18 18 18 18 18 18 18 18 18 18 17 17 17 17 17 17 17 17 17 17 17 17 17 17 17 17 17 17 17 17 17
20 20 20 19 19 19 19 19 18 18 18 18 18 18 18 18 18 18 18 18 18 18 18 17 17 17 17 17 17 17 17 17 17 17 17 17 17 17 17 17 17 17 17
20 20 20 19 19 19 19 19 19 18 18 18 18 18 18 18 18 18 18 18 18 18 17 17 17 17 17 17 17 17 17 17 17 17 17 17 17 17 17 17 17 17 17
20 20 20 19 19 19 19 19 18 18 18 18 18 18 18 18 18 18 18 18 18 17 17 17 17 17 17 17 17 17 17 17 17 17 17 17 17 17 17 17 17 17 17
21 20 20 19 19 19 19 19 19 18 18 18 18 18 18 18 18 18 18 18 17 17 17 17 17 17 17 17 17 17 17 17 17 17 17 17 17 17 17 17 17 17 17
21 21 20 20 20 19 19 19 18 18 18 18 18 18 18 18 18 18 18 18 17 17 17 17 17 17 17 17 17 17 17 17 17 17 17 17 17 17 17 17 17 17 17
21 21 20 20 20 19 19 19 18 18 19 18 18 18 18 18 18 18 18 18 17 17 17 17 17 17 17 17 17 17 17 17 17 17 17 17 17 17 17 17 17 17 17
21 21 21 20 20 19 19 19 19 19 19 19 19 18 18 18 18 18 18 18 18 17 17 17 17 17 17 17 17 17 18 18 18 18 17 17 17 17 17 17 17 17 17
21 21 21 20 20 20 20 19 19 19 19 19 19 18 18 18 18 18 18 18 18 18 17 17 17 17 17 17 17 17 17 18 18 18 18 18 17 17 17 17 17 17 17
22 21 21 21 20 20 20 19 19 19 19 19 19 19 18 18 18 18 18 17 17 17 17 17 17 17 17 17 17 17 17 17 17 18 18 18 18 17 17 17 17 17 17
22 22 21 21 20 20 20 19 19 19 19 19 19 19 18 18 18 18 18 17 17 17 17 17 17 17 17 17 17 17 17 17 17 17 17 17 17 17 17 17 17 17 17
22 22 21 21 21 20 20 20 19 19 19 19 19 19 18 18 18 18 18 17 17 17 17 17 17 17 17 17 17 17 17 17 17 16 17 17 17 17 17 17 17 17 16
22 22 22 21 21 20 20 20 19 19 19 19 19 19 19 18 18 18 18 18 17 18 18 17 17 17 17 17 17 17 17 17 17 16 16 17 17 17 17 16 16 16 16
Wind_Speed
2 5 11 14 15 17 18 18 18 19 19 19 19 19 19 19 19 19 19 19 19 19 19 20 20 20 20 19 19 19 19 19 18 18 18 17 17 17 17 17 16 15 17
4 7 11 13 15 16 17 18 18 18 18 19 19 19 19 19 19 19 19 19 19 19 19 19 19 19 19 19 19 18 18 18 18 17 17 16 16 16 16 16 15 15 16
6 7 12 13 15 15 16 16 17 17 18 18 18 18 18 18 18 18 18 18 18 19 19 19 19 19 19 18 18 18 18 17 17 17 15 14 14 15 16 16 16 16 16
7 8 11 14 14 15 15 15 16 16 17 16 17 17 17 17 18 18 18 18 18 18 18 18 18 18 17 17 17 17 17 16 16 15 13 12 12 14 15 15 15 15 15
7 8 12 14 14 15 15 15 15 16 16 16 16 16 16 17 17 17 17 17 17 17 18 18 17 17 16 16 15 15 15 15 15 14 12 12 12 14 15 14 14 14 14
6 8 12 14 14 14 14 14 15 15 15 15 15 15 15 16 16 16 16 16 16 16 17 17 16 15 15 14 14 14 14 15 14 12 11 11 11 13 14 14 14 14 13
6 7 11 13 13 13 13 14 14 14 14 14 14 14 14 15 15 15 15 15 15 15 16 15 15 14 13 13 13 12 13 14 12 11 10 10 10 12 13 13 13 13 13
6 7 10 12 13 13 13 13 13 13 13 13 13 13 13 13 13 13 14 14 14 14 14 14 13 12 12 12 12 12 12 12 11 10 9 9 11 12 12 12 12 12 12
6 6 6 9 11 12 12 12 12 12 12 12 12 12 12 12 12 12 12 12 12 12 12 12 11 11 10 11 11 11 11 11 10 9 9 8 10 11 11 11 11 11 11
5 4 5 7 8 9 10 11 11 11 11 11 11 11 11 11 10 10 10 10 11 10 10 10 10 9 9 9 9 9 10 10 9 8 7 8 9 10 10 10 10 10 10
6 3 4 5 6 7 8 9 9 10 9 9 9 10 9 8 8 8 8 9 9 8 8 8 8 8 8 7 7 8 8 7 7 7 6 8 9 9 9 9 9 9 9
8 5 4 4 5 6 6 6 6 6 7 6 6 8 8 7 6 6 6 7 7 7 7 7 7 7 7 6 5 6 6 6 6 6 6 9 9 9 9 8 8 8 8
8 7 5 5 5 5 4 5 5 5 5 5 5 6 6 5 4 4 4 4 4 5 5 5 5 5 4 4 3 4 5 5 5 5 6 8 9 9 9 9 9 9 8
8 7 6 6 5 5 5 4 4 4 4 4 4 5 5 3 2 2 2 2 3 3 3 3 3 2 2 2 2 3 4 5 5 5 6 8 9 9 9 9 9 9 9
8 8 7 6 6 5 5 4 4 4 4 4 4 5 5 4 2 2 1 1 1 1 1 1 1 1 1 1 1 3 4 4 5 6 6 8 9 10 10 10 10 10 10
9 8 7 8 7 6 4 4 4 5 5 5 5 5 6 5 4 3 2 1 1 1 1 0 0 0 0 0 1 2 3 4 5 6 7 8 10 11 11 11 11 11 11
9 8 8 8 7 7 6 6 5 6 6 5 6 6 7 7 5 4 2 2 3 2 2 1 0 0 0 1 1 2 3 5 5 6 7 7 8 10 12 13 13 12 12
9 9 9 9 8 7 6 5 5 6 7 7 7 7 8 8 7 5 3 3 4 3 2 1 1 0 1 1 1 2 2 4 5 6 7 8 9 9 11 13 13 13 14
11 10 9 8 8 7 6 5 5 5 6 7 7 7 8 8 8 6 4 4 4 3 2 2 1 1 1 2 2 2 2 3 4 6 6 8 9 9 9 11 13 14 14
10 9 9 8 7 6 4 3 2 2 3 5 6 8 9 9 8 7 5 5 4 3 2 2 2 1 2 2 2 3 3 3 4 4 6 6 8 9 9 9 10 12 13
8 9 9 8 7 6 4 3 3 3 3 3 5 8 8 8 8 7 5 4 4 3 4 3 2 2 1 1 0 2 3 3 3 4 4 4 6 8 8 9 10 9 9
11 10 9 9 9 8 6 4 3 3 2 3 3 5 7 8 7 7 5 4 4 3 3 3 3 2 1 1 2 0 2 3 2 2 2 3 4 5 6 8 8 8 8
12 12 11 10 9 8 7 4 3 2 1 1 2 2 5 7 7 7 6 5 4 4 4 4 4 4 3 2 2 2 2 3 3 2 2 2 2 3 4 5 6 8 8
13 11 10 10 8 8 7 7 6 5 5 5 3 3 4 6 7 8 7 6 5 4 4 5 4 3 3 3 2 2 3 2 2 2 2 1 2 3 3 3 4 6 7
11 11 10 9 9 8 8 8 7 6 5 3 2 3 4 4 5 7 7 6 5 4 5 4 3 4 3 4 3 2 2 2 3 3 4 2 2 2 3 3 3 4 5
9 9 9 9 8 8 8 8 8 8 6 4 4 4 4 3 3 5 6 5 5 4 4 4 4 4 4 4 4 3 3 3 3 3 4 4 3 2 2 2 2 3 4
Wind_Direction
96 108 105 101 101 101 101 99 99 100 100 100 102 103 103 102 102 101 100 100 99 98 98 99 100 100 101 102 103 105 105 105 106 107 107 107 106 105 105 103 103 104 105
127 121 114 107 105 103 102 101 100 101 101 101 103 104 104 103 102 102 101 100 100 100 100 100 100 101 102 103 104 104 105 104 105 106 106 106 106 106 106 105 105 107 108
114 120 118 113 110 107 104 103 103 103 102 102 103 103 104 104 103 103 103 103 102 101 101 101 101 101 102 104 105 105 105 104 103 102 101 102 105 107 108 108 108 108 109
122 121 123 119 115 112 109 107 106 105 105 105 104 104 104 104 104 104 104 104 103 102 102 102 102 103 104 105 106 106 106 104 104 102 97 100 106 110 110 110 110 110 110
118 124 128 122 119 116 114 111 110 109 109 108 107 107 107 106 105 105 105 105 105 104 103 103 104 104 105 105 107 109 109 107 106 101 98 98 104 111 112 112 112 111 111
118 127 131 127 123 120 117 114 113 112 111 111 110 109 108 107 106 106 106 105 105 105 105 104 104 104 105 106 109 110 112 112 107 103 101 104 109 113 113 113 112 112 111
120 129 133 130 128 124 121 119 117 115 114 113 112 112 111 110 108 108 108 107 107 107 106 104 103 102 102 105 111 114 115 115 112 109 107 109 115 117 116 115 114 115 114
121 125 134 134 132 129 124 122 121 120 118 116 114 113 112 111 110 110 110 110 109 108 107 105 103 102 102 107 111 116 120 121 120 118 115 117 120 121 120 119 118 119 119
114 116 122 133 135 133 129 127 126 123 122 120 118 116 113 112 112 112 113 113 112 111 110 108 104 103 106 113 113 116 121 121 124 127 128 128 129 129 128 128 126 126 125
108 108 113 119 125 128 133 135 132 129 127 125 123 120 117 114 113 115 114 116 114 112 111 109 106 104 106 114 114 118 122 123 128 132 134 139 140 140 139 139 137 135 134
147 125 120 120 124 130 137 142 139 135 132 127 124 121 108 99 102 109 116 116 115 112 111 108 104 100 96 100 110 118 123 129 138 142 147 150 151 151 151 149 148 145 145
172 171 152 140 139 138 139 129 127 124 124 119 113 110 106 103 102 105 112 116 114 110 108 102 94 92 88 85 97 113 126 138 148 158 166 166 167 166 163 161 159 157 157
176 177 170 162 155 144 130 131 126 124 124 123 123 119 114 105 97 87 84 87 90 91 83 80 77 85 91 97 108 130 147 151 160 172 179 179 180 180 179 175 172 172 172
174 185 178 168 160 160 150 147 146 144 141 143 148 146 138 126 109 98 82 73 68 74 76 69 71 74 77 102 139 154 167 173 176 184 193 193 195 196 194 188 186 187 189
182 188 179 172 175 170 162 169 168 172 171 173 173 177 172 167 158 148 133 109 79 84 86 75 71 59 50 64 174 181 185 190 194 198 209 209 210 210 208 204 202 202 202
189 190 181 182 184 175 174 181 180 186 190 190 199 203 196 189 181 174 175 189 222 216 202 157 120 70 312 272 237 210 205 205 209 212 217 221 222 221 221 219 216 215 213
189 187 186 188 183 182 188 193 191 192 193 198 209 212 207 204 196 186 187 203 219 214 198 164 67 68 263 278 253 235 218 216 219 225 225 227 231 231 230 227 226 226 224
184 185 194 194 183 189 193 194 195 194 194 202 209 211 213 214 206 192 193 215 220 209 187 172 180 204 266 263 260 251 231 225 230 233 233 231 231 234 236 234 233 233 233
187 184 188 188 183 188 190 191 198 195 197 202 205 209 212 213 209 201 209 221 216 202 199 213 196 197 230 249 256 259 248 240 239 240 237 236 234 236 239 242 240 238 238
187 184 183 182 182 175 171 166 173 187 201 201 205 209 207 208 208 205 215 217 205 198 205 206 214 217 222 237 268 278 270 255 245 241 240 239 239 241 242 244 245 244 244
182 183 183 180 178 170 166 171 175 199 205 207 214 213 210 212 209 207 218 207 199 205 216 204 196 215 237 193 19 315 305 271 251 245 243 241 241 243 242 241 243 244 250
187 189 187 186 184 185 183 175 171 165 191 211 217 210 210 212 213 216 213 209 203 209 220 208 187 185 219 170 165 197 322 326 304 257 244 240 248 246 242 243 241 240 245
193 193 195 193 193 192 179 151 133 112 103 172 214 213 210 210 212 217 215 213 209 203 215 214 197 191 214 219 196 174 189 253 297 302 265 251 255 244 242 240 240 244 245
198 192 189 190 192 192 178 177 177 184 198 210 205 209 216 214 215 217 216 213 214 215 218 222 204 199 195 226 225 218 212 201 225 293 301 285 275 263 257 257 255 248 244
192 188 189 187 190 188 186 191 189 199 204 198 194 203 217 219 219 220 218 214 216 221 224 223 206 205 204 217 220 212 221 229 223 233 274 293 301 273 263 260 267 267 259
187 187 186 183 190 187 187 194 198 204 202 197 205 209 215 220 223 222 217 215 219 222 225 223 215 212 215 222 226 214 205 211 214 216 244 265 278 285 283 275 276 275 274
Height
1528 1528 1529 1529 1529 1529 1530 1531 1532 1532 1533 1534 1535 1536 1537 1538 1539 1540 1541 1542 1543 1544 1545 1546 1547 1549 1550 1551 1552 1553 1554 1555 1556 1557 1559 1559 1561 1562 1563 1564 1565 1566 1567
1529 1530 1531 1532 1532 1533 1533 1534 1535 1536 1537 1538 1539 1539 1540 1541 1542 1543 1544 1545 1546 1547 1548 1550 1551 1551 1552 1553 1555 1556 1557 1558 1559 1560 1561 1562 1563 1564 1565 1566 1567 1568 1569
1531 1532 1534 1534 1535 1536 1537 1537 1538 1539 1540 1541 1542 1543 1544 1544 1545 1546 1547 1548 1549 1550 1551 1552 1553 1554 1555 1556 1557 1559 1560 1561 1562 1563 1564 1564 1566 1567 1568 1569 1570 1571 1572
1533 1535 1536 1537 1538 1539 1540 1540 1541 1542 1543 1544 1545 1546 1547 1548 1548 1549 1550 1551 1552 1553 1554 1555 1556 1557 1558 1559 1561 1562 1563 1564 1564 1565 1566 1567 1568 1569 1570 1571 1572 1573 1574
1535 1537 1538 1539 1540 1541 1542 1543 1544 1545 1546 1547 1548 1549 1550 1551 1551 1552 1553 1554 1555 1556 1557 1558 1559 1561 1562 1563 1564 1564 1565 1566 1567 1568 1569 1570 1571 1572 1572 1573 1574 1575 1576
1537 1539 1540 1542 1543 1544 1545 1546 1547 1548 1549 1550 1551 1552 1553 1554 1554 1555 1556 1557 1558 1559 1560 1561 1563 1564 1565 1566 1567 1567 1568 1569 1570 1570 1571 1572 1573 1574 1575 1576 1577 1577 1579
1539 1541 1543 1544 1545 1547 1548 1549 1550 1551 1552 1553 1554 1555 1556 1557 1557 1558 1559 1560 1561 1562 1563 1564 1565 1567 1568 1568 1569 1570 1571 1571 1572 1573 1574 1574 1575 1576 1577 1578 1579 1580 1581
1541 1543 1545 1546 1548 1549 1550 1551 1553 1554 1555 1556 1557 1558 1558 1559 1560 1561 1562 1563 1564 1565 1566 1567 1568 1569 1570 1571 1572 1572 1573 1574 1574 1575 1576 1577 1577 1578 1579 1580 1581 1581 1582
1544 1545 1547 1549 1550 1551 1553 1554 1555 1556 1557 1558 1559 1560 1561 1562 1563 1564 1565 1566 1567 1568 1569 1570 1571 1572 1573 1573 1574 1575 1575 1576 1577 1577 1578 1579 1579 1580 1581 1582 1582 1583 1584
1546 1547 1549 1550 1552 1553 1555 1556 1558 1559 1560 1561 1562 1563 1564 1564 1565 1566 1567 1568 1569 1570 1571 1572 1573 1574 1575 1576 1577 1577 1577 1578 1579 1579 1580 1580 1581 1582 1582 1583 1584 1585 1585
1547 1549 1551 1552 1554 1555 1557 1558 1560 1561 1562 1563 1564 1565 1566 1567 1568 1569 1570 1571 1572 1572 1573 1574 1575 1576 1577 1578 1579 1579 1579 1580 1580 1581 1582 1582 1583 1583 1584 1584 1585 1586 1587
1547 1550 1552 1554 1556 1557 1558 1560 1561 1563 1564 1565 1566 1567 1568 1569 1570 1571 1572 1573 1574 1575 1576 1576 1577 1578 1579 1580 1580 1581 1581 1582 1582 1583 1583 1583 1584 1584 1585 1586 1586 1587 1588
1549 1551 1553 1555 1557 1558 1560 1562 1563 1564 1566 1567 1568 1569 1570 1571 1572 1573 1574 1575 1576 1577 1577 1578 1579 1580 1581 1582 1582 1582 1583 1583 1584 1584 1584 1585 1585 1585 1586 1586 1587 1588 1588
1550 1552 1554 1556 1558 1560 1561 1563 1564 1566 1567 1568 1570 1571 1572 1573 1574 1575 1576 1577 1578 1578 1579 1580 1581 1582 1582 1583 1584 1584 1584 1584 1585 1585 1585 1585 1586 1586 1586 1587 1587 1588 1588
1551 1553 1555 1557 1559 1561 1562 1564 1565 1567 1569 1570 1571 1572 1573 1574 1575 1576 1577 1578 1579 1580 1581 1582 1582 1583 1583 1584 1584 1585 1585 1585 1585 1585 1586 1586 1586 1586 1587 1587 1587 1587 1588
1551 1554 1556 1558 1560 1562 1563 1565 1566 1568 1570 1571 1572 1574 1575 1576 1577 1578 1578 1579 1580 1581 1582 1583 1583 1584 1584 1584 1585 1585 1585 1585 1585 1586 1586 1586 1586 1586 1586 1587 1587 1587 1587
1551 1554 1556 1558 1560 1562 1564 1566 1567 1569 1571 1572 1573 1574 1575 1576 1577 1578 1579 1580 1581 1582 1582 1583 1584 1584 1584 1585 1585 1585 1585 1585 1585 1585 1585 1585 1585 1585 1586 1586 1586 1586 1586
1551 1554 1556 1558 1560 1563 1564 1566 1568 1569 1571 1572 1573 1574 1575 1577 1578 1579 1579 1580 1581 1582 1582 1583 1584 1584 1584 1584 1584 1584 1585 1585 1584 1584 1584 1584 1584 1585 1585 1585 1585 1585 1585
1551 1553 1556 1558 1560 1562 1564 1566 1568 1569 1570 1572 1573 1574 1575 1576 1577 1578 1579 1580 1581 1582 1582 1583 1583 1583 1583 1584 1584 1583 1583 1583 1583 1583 1583 1583 1583 1583 1583 1583 1583 1583 1583
1551 1553 1555 1558 1560 1562 1564 1565 1567 1568 1570 1571 1572 1574 1575 1576 1577 1578 1579 1580 1580 1581 1581 1582 1582 1582 1582 1583 1582 1582 1582 1582 1581 1581 1581 1581 1581 1581 1581 1581 1581 1581 1581
1550 1552 1554 1556 1558 1560 1562 1564 1565 1567 1569 1570 1571 1573 1574 1575 1576 1577 1578 1578 1579 1580 1580 1581 1581 1581 1581 1581 1581 1580 1580 1580 1579 1579 1579 1579 1579 1579 1579 1578 1578 1578 1578
1547 1550 1552 1554 1557 1558 1560 1562 1564 1566 1567 1569 1570 1571 1572 1574 1575 1576 1576 1577 1577 1578 1579 1579 1579 1580 1580 1580 1580 1579 1578 1578 1577 1577 1576 1576 1576 1576 1576 1576 1576 1576 1575
1544 1547 1550 1553 1556 1557 1559 1561 1563 1564 1565 1567 1568 1570 1571 1572 1573 1574 1574 1575 1576 1576 1577 1577 1577 1578 1578 1578 1578 1578 1577 1576 1575 1574 1574 1574 1574 1574 1573 1573 1573 1573 1572
1541 1544 1548 1551 1553 1555 1557 1559 1560 1561 1562 1564 1566 1568 1569 1570 1570 1571 1572 1572 1573 1574 1574 1575 1575 1575 1575 1575 1575 1575 1576 1575 1574 1572 1572 1572 1571 1571 1571 1570 1570 1570 1570
1538 1542 1545 1548 1550 1553 1555 1556 1558 1559 1561 1562 1564 1565 1566 1567 1568 1568 1569 1570 1570 1571 1572 1572 1572 1572 1573 1573 1573 1573 1572 1572 1571 1571 1569 1569 1568 1568 1568 1568 1567 1567 1567
1536 1540 1543 1545 1548 1551 1553 1554 1556 1557 1558 1560 1561 1562 1563 1564 1565 1566 1566 1567 1567 1568 1568 1569 1569 1569 1570 1570 1569 1569 1569 1569 1568 1567 1566 1565 1565 1565 1565 1564 1564 1564 1563